Weather History for KBUF - February, 2013

Change the Weather History Date:

Thursday, February 21, 2013

  Actual Average Record
Temperature  
Mean Temperature 19 °F 27 °F  
Max Temperature 21 °F 35 °F 70 °F (1997)
Min Temperature 16 °F 20 °F -4 °F (1918)
Degree Days  
Heating Degree Days 46 38  
Month to date heating degree days 853 826  
Since 1 July heating degree days 4091 4485  
Cooling Degree Days 0 0  
Month to date cooling degree days 0 0  
Year to date cooling degree days 0 0  
Moisture  
Dew Point 11 °F    
Average Humidity 72    
Maximum Humidity 77    
Minimum Humidity 67    
Precipitation  
Precipitation T in 0.09 in 0.94 in (1976)
Month to date precipitation 1.49 1.84  
Year to date precipitation 3.99 5.02  
Snow  
Snow 0.10 in 0.60 in 5.50 in (1912)
Month to date snowfall 18.9 13.3  
Since 1 July snowfall 47.1 74.8  
Snow Depth T in    
Sea Level Pressure  
Sea Level Pressure 30.26 in    
Wind  
Wind Speed 11 mph (West)    
Max Wind Speed 21 mph    
Max Gust Speed 25 mph    
Visibility 6 miles    
Events Snow    
T = Trace of Precipitation, MM = Missing Value Source: NWS Daily Summary

Daily Weather History Graph

Daily Weather History Graph

Search for Another Location

Airport or City:

Trip Planner

Search our weather history database for the weather conditions in past years. The results will help you decide how hot, cold, wet, or windy it might be!

Date:

Astronomy

Feb. 21, 2013 Rise Set
Actual Time 7:03 AM EST 5:54 PM EST
Civil Twilight 6:34 AM EST 6:23 PM EST
Nautical Twilight 6:01 AM EST 6:56 PM EST
Astronomical Twilight 5:28 AM EST 7:29 PM EST
Moon 2:03 PM EST (2/21) 4:10 AM EST (2/21)
Length of Visible Light 11h 48m
Length of Day
10h 51m
Waxing Gibbous, 83% of the Moon is Illuminated
Feb 21
Waxing Gibbous
Feb 25
Full
Mar 4
Last Quarter
Mar 11
New
Mar 19
First Quarter

Hourly Weather History & Observations

Time (EST) Temp. Windchill Dew Point Humidity Pressure Visibility Wind Dir Wind Speed Gust Speed Precip Events Conditions
12:54 AM 19.9 °F 5.7 °F 12.0 °F 71% 30.10 in 6.0 mi West 16.1 mph 23.0 mph 0.00 in Snow Light Snow
1:54 AM 19.9 °F 5.7 °F 12.9 °F 74% 30.10 in 5.0 mi West 16.1 mph 24.2 mph 0.00 in Snow Light Snow
2:54 AM 19.0 °F 5.6 °F 14.0 °F 81% 30.11 in 3.0 mi West 13.8 mph 23.0 mph 0.00 in Snow Light Snow
3:05 AM 19.4 °F 6.6 °F 12.2 °F 74% 30.07 in 5.0 mi West 12.7 mph 25.3 mph 0.00 in Snow Light Snow
3:54 AM 19.0 °F 6.8 °F 12.9 °F 77% 30.12 in 4.0 mi West 11.5 mph - 0.00 in Snow Light Snow
4:54 AM 19.0 °F 6.1 °F 14.0 °F 81% 30.15 in 4.0 mi WNW 12.7 mph - 0.00 in Snow Light Snow
5:15 AM 19.4 °F 7.2 °F 12.2 °F 74% 30.12 in 2.5 mi WNW 11.5 mph - 0.00 in Snow Light Snow
5:26 AM 17.6 °F 2.7 °F 12.2 °F 79% 30.12 in 4.0 mi WNW 16.1 mph 25.3 mph 0.00 in Snow Light Snow
5:54 AM 18.0 °F 3.6 °F 10.9 °F 74% 30.18 in 8.0 mi WNW 15.0 mph 21.9 mph 0.00 in Snow Light Snow
6:54 AM 17.1 °F 3.6 °F 10.0 °F 74% 30.20 in 8.0 mi NW 12.7 mph - 0.00 in Snow Light Snow
7:54 AM 16.0 °F 2.9 °F 9.0 °F 74% 30.24 in 4.0 mi NW 11.5 mph - 0.00 in Snow Light Snow
8:18 AM 15.8 °F 0.9 °F 8.6 °F 73% 30.20 in 2.5 mi WNW 15.0 mph - 0.00 in Snow Light Snow
8:28 AM 15.8 °F 1.4 °F 8.6 °F 73% 30.20 in 3.0 mi NW 13.8 mph - 0.00 in Snow Light Snow
8:54 AM 16.0 °F 1.1 °F 9.0 °F 74% 30.25 in 3.0 mi WNW 15.0 mph - 0.00 in Snow Light Snow
9:12 AM 15.8 °F 3.4 °F 8.6 °F 73% 30.22 in 2.5 mi WNW 10.4 mph - 0.00 in Snow Light Snow
9:18 AM 15.8 °F 1.4 °F 8.6 °F 73% 30.22 in 3.0 mi West 13.8 mph - N/A Snow Light Snow
9:54 AM 16.0 °F 2.3 °F 9.0 °F 74% 30.30 in 2.5 mi WNW 12.7 mph - 0.00 in Snow Light Snow
10:01 AM 15.8 °F 0.3 °F 8.6 °F 73% 30.26 in 3.0 mi West 16.1 mph 20.7 mph 0.00 in Snow Light Snow
10:54 AM 16.0 °F 4.4 °F 9.0 °F 74% 30.30 in 6.0 mi West 9.2 mph - 0.00 in Snow Light Snow
11:54 AM 17.1 °F 6.6 °F 10.0 °F 74% 30.30 in 4.0 mi WSW 8.1 mph - 0.00 in Snow Light Snow
12:54 PM 19.0 °F 6.8 °F 10.0 °F 68% 30.31 in 8.0 mi West 11.5 mph - 0.00 in Snow Light Snow
1:54 PM 19.9 °F 8.6 °F 10.0 °F 65% 30.30 in 8.0 mi WSW 10.4 mph - 0.00 in Snow Light Snow
2:54 PM 19.9 °F 6.7 °F 12.0 °F 71% 30.32 in 7.0 mi SW 13.8 mph - 0.00 in Snow Light Snow
3:13 PM 21.2 °F 8.3 °F 12.2 °F 68% 30.27 in 10.0 mi WSW 13.8 mph - 0.00 in Snow Light Snow
3:46 PM 19.4 °F 5.5 °F 12.2 °F 74% 30.29 in 10.0 mi SW 15.0 mph - 0.00 in Snow Light Snow
3:54 PM 19.9 °F 7.9 °F 12.0 °F 71% 30.33 in 10.0 mi WSW 11.5 mph - 0.00 in Snow Light Snow
4:54 PM 19.9 °F 8.6 °F 12.0 °F 71% 30.34 in 10.0 mi SW 10.4 mph - 0.00 in   Mostly Cloudy
5:54 PM 19.9 °F 8.6 °F 12.0 °F 71% 30.35 in 10.0 mi SW 10.4 mph - N/A   Mostly Cloudy
6:54 PM 19.9 °F 10.1 °F 12.9 °F 74% 30.40 in 10.0 mi SW 8.1 mph - N/A   Mostly Cloudy
7:54 PM 21.0 °F 11.4 °F 12.9 °F 71% 30.43 in 10.0 mi SW 8.1 mph - N/A   Mostly Cloudy
8:54 PM 21.0 °F 14.6 °F 14.0 °F 74% 30.41 in 10.0 mi SW 4.6 mph - N/A   Mostly Cloudy
9:54 PM 21.0 °F 14.6 °F 14.0 °F 74% 30.42 in 10.0 mi South 4.6 mph - N/A   Overcast
10:54 PM 19.9 °F 14.9 °F 14.0 °F 78% 30.40 in 10.0 mi SSE 3.5 mph - N/A   Overcast
11:54 PM 19.9 °F 13.4 °F 14.0 °F 78% 30.39 in 10.0 mi ESE 4.6 mph - 0.00 in Snow Light Snow